Regional Weather Roundup
Issued by NWS Austin/San Antonio, TX

Home | Current Version | Previous Version | Text Only | Print | Product List | Glossary On
Versions: 1 2 3 4 5 6 7 8 9 10 11 12 13 14 15 16 17 18 19 20 21 22 23 24 25 26 27 28 29 30 31 32 33 34 35 36 37 38 39 40 41 42 43 44 45 46 47 48 49 50
495
ASUS44 KEWX 160602
RWREWX
SOUTH TEXAS REGIONAL WEATHER ROUNDUP
NATIONAL WEATHER SERVICE AUSTIN/SAN ANTONIO TX
1200 AM CST TUE JAN 16 2018

NOTE: "FAIR" INDICATED FEW OR NO CLOUDS BELOW 12,000 FEET WITH NO
SIGNIFICANT WEATHER AND/OR OBSTRUCTIONS TO VISIBILITY.

* - THESE STATIONS ARE NOT NWS OR FAA STATIONS...AND ARE NOT SUBJECT
    TO NWS AND FAA QUALITY CONTROL.

TXZ171-172-183>190-160700-
TEXAS HILL COUNTRY AND EDWARDS PLATEAU

CITY           SKY/WX    TMP DP  RH WIND       PRES   REMARKS
JUNCTION       CLOUDY    36  21  54 N17G28    30.52R WCI  26
6HR MIN TEMP:  36; 6HR MAX TEMP:  63;

*LLANO         CLOUDY    37  30  75 N20G25    30.57R WCI  27
BURNET         CLOUDY    35  31  85 N15G28    30.52R WCI  25
6HR MIN TEMP:  35; 6HR MAX TEMP:  62; 6HR PCP:  0.04;

*HORSESHOE BAY DRIZZLE   37  35  93 N9G20     30.52R WCI  30
6HR MIN TEMP:  37; 6HR MAX TEMP:  62; 6HR PCP:  0.02;

*KERRVILLE     DRIZZLE   38  34  85 N13G30    30.45R WCI  31
6HR MIN TEMP:  38; 6HR MAX TEMP:  59;

*FREDERICKSBRG CLOUDY    38  32  78 N15G28    30.47R WCI  30
*ROCKSPRINGS     N/A     36  30  80 NE22G29   30.47R WCI  24
*BOERNE STAGE  CLOUDY    39  36  87 N14G25    30.43R WCI  31
*CASTROVILLE   CLOUDY    53  40  62 N26G33    30.37R
HONDO          CLOUDY    49  39  68 N29G41    30.36R WCI  41
6HR MIN TEMP:  49; 6HR MAX TEMP:  65;

*UVALDE        CLOUDY    54  37  53 N23G31    30.35R
6HR MIN TEMP:  54; 6HR MAX TEMP:  63;

DEL RIO        CLOUDY    48  32  53 N23G35    30.37R WCI  40
6HR MIN TEMP:  48; 6HR MAX TEMP:  65;

LAUGHLIN AFB   MOCLDY    48  32  54 NE23G31   30.36R WCI  41
6HR MIN TEMP:  48; 6HR MAX TEMP:  64;

CARRIZO SPRGS  PTCLDY    54  46  76 CALM      30.28R
*EAGLE PASS    CLOUDY    57  46  67 NE5       30.30R
*FAITH RANCH   CLOUDY    55  50  82 E7        30.27R
$$

TXZ173-191>194-202-209-217>225-228-160700-
CENTRAL AND SOUTH CENTRAL TEXAS

CITY           SKY/WX    TMP DP  RH WIND       PRES   REMARKS
GEORGETOWN     LGT RAIN  36  32  85 N20G29    30.51R WCI  25
6HR MIN TEMP:  36; 6HR MAX TEMP:  62; 6HR PCP:  0.11;

AUSTIN/BERGSTM LGT RAIN  38  37  97 N25G36    30.47R WCI  27
6HR MIN TEMP:  38; 6HR MAX TEMP:  64; 6HR PCP:  0.10;

AUSTIN/MABRY   LGT RAIN  39  35  86 N12G28    30.49R WCI  32
6HR MIN TEMP:  39; 6HR MAX TEMP:  65; 6HR PCP:  0.10;

*AUSTIN/EXEC   MIX PCPN  36  36 100 N29G35    30.47R WCI  23
*LAGO VISTA    CLOUDY    36  34  92 NE18G30   30.47R WCI  25
6HR MIN TEMP:  36; 6HR MAX TEMP:  62; 6HR PCP:  0.01;

SAN MARCOS     LGT RAIN  40  38  93 N25G31    30.46R WCI  29
6HR MIN TEMP:  40; 6HR MAX TEMP:  63; 6HR PCP:  0.03;

NEW BRAUNFELS  RAIN      42  38  85 N23G37    30.42R FOG     WCI  33
6HR MIN TEMP:  42; 6HR MAX TEMP:  64; 6HR PCP:  0.05;

RANDOLPH AFB   LGT RAIN  44  38  80 N25G31    30.41R WCI  35
6HR MIN TEMP:  44; 6HR MAX TEMP:  62; 6HR PCP: TRACE;

PT SAN ANTONIO CLOUDY    49  39  69 N23G35    30.35R WCI  42
6HR MIN TEMP:  49; 6HR MAX TEMP:  64;

SAN ANTONIO    LGT RAIN  44  37  76 N25G38    30.40R WCI  35
6HR MIN TEMP:  44; 6HR MAX TEMP:  63; 6HR PCP: TRACE;

STINSON FIELD  CLOUDY    51  42  71 N23G32    30.35R
6HR MIN TEMP:  51; 6HR MAX TEMP:  67;

*LA GRANGE     LGT SNOW  42  40  93 N13G30    30.41R WCI  35
6HR MIN TEMP:  42; 6HR MAX TEMP:  63; 6HR PCP:  0.16;

*GIDDINGS      RAIN     N/A N/A N/A N17G33    30.44R
                                      6HR PCP:  0.15;

*GONZALES      CLOUDY    46  41  82 N24G35    30.37R WCI  38
$$

TXZ163>164-176>182-195>201-210>213-226-227-235-160700-
SOUTHEAST TEXAS

CITY           SKY/WX    TMP DP  RH WIND       PRES   REMARKS
COLLEGE STN    LGT RAIN  39  37  92 N26G37    30.45R FOG     WCI  28
6HR MIN TEMP:  39; 6HR MAX TEMP:  62; 6HR PCP:  0.20;

*BRYAN         LGT RAIN  37  37 100 N20G28    30.48R WCI  26
6HR MIN TEMP:  37; 6HR MAX TEMP:  60;

*CALDWELL      LGT RAIN  36  34  92 N22G35    30.45R WCI  25
6HR MIN TEMP:  36; 6HR MAX TEMP:  62; 6HR PCP:  0.17;

*CROCKETT        N/A     37  36  93 N10G20    30.48  FOG     WCI  30
*BRENHAM       LGT RAIN  43  41  95 N28G36    30.42R WCI  32
6HR MIN TEMP:  43; 6HR MAX TEMP:  64; 6HR PCP:  0.11;

HUNTSVILLE     LGT RAIN  44  41  89 N10G20    30.41R WCI  39
6HR MIN TEMP:  44; 6HR MAX TEMP:  61; 6HR PCP:  0.03;

CONROE         LGT RAIN  52  49  89 N10G16    30.36R
6HR MIN TEMP:  51; 6HR MAX TEMP:  59; 6HR PCP:  0.04;

HOUSTON BUSH   CLOUDY    52  49  89 SE9       30.31R
6HR MIN TEMP:  52; 6HR MAX TEMP:  59; 6HR PCP: TRACE;

HOUSTON HOBBY  MOCLDY    54  50  86 E3        30.31S
6HR MIN TEMP:  54; 6HR MAX TEMP:  57; 6HR PCP: TRACE;

*HOUSTON SW AP CLOUDY    54  49  84 SE5       30.32S
6HR MIN TEMP:  54; 6HR MAX TEMP:  58;

PEARLAND       CLOUDY    55  51  86 SE8       30.32F
6HR MIN TEMP:  55; 6HR MAX TEMP:  58;

HOUSTON HOOKS  CLOUDY    54  48  80 E3        30.32S
6HR MIN TEMP:  53; 6HR MAX TEMP:  59; 6HR PCP: TRACE;

ELLINGTON FLD  MOCLDY    54  50  87 E10       30.31R
SUGAR LAND     CLOUDY    56  49  77 SE8       30.31S
6HR MIN TEMP:  56; 6HR MAX TEMP:  61; 6HR PCP: TRACE;

*HOUSTON EXEC  CLOUDY    55  48  76 SE7       30.32R
*CLEVELAND MUN CLOUDY    51  46  83 CALM      30.34S
6HR MIN TEMP:  50; 6HR MAX TEMP:  58;

*WHARTON       CLOUDY    55  48  79 E6        30.31F
6HR MIN TEMP:  55; 6HR MAX TEMP:  60;

*COLUMBUS      CLOUDY    55  49  82 N15G22    30.35R
6HR MIN TEMP:  55; 6HR MAX TEMP:  60;

*EAGLE LAKE    CLOUDY    55  51  86 SE5       30.30S
6HR MIN TEMP:  55; 6HR MAX TEMP:  61;

$$

TXZ214>216-236>238-160700-
THE UPPER TEXAS COAST

CITY           SKY/WX    TMP DP  RH WIND       PRES   REMARKS
*ORANGE        CLOUDY    49  47  94 CALM      30.36S
6HR MIN TEMP:  48; 6HR MAX TEMP:  53;

PORT ARTHUR    CLOUDY    50  47  89 SE5       30.34S WCI  48
6HR MIN TEMP:  46; 6HR MAX TEMP:  51;

GALVESTON      CLOUDY    57  53  86 E12       30.32F
6HR MIN TEMP:  56; 6HR MAX TEMP:  58;

ANGLETON       CLOUDY    55  51  86 E3        30.31S
6HR MIN TEMP:  55; 6HR MAX TEMP:  60;

*BAY CITY      CLOUDY    56  52  86 E5        30.31R
PALACIOS       CLOUDY    57  54  89 NE6       30.30R
6HR MIN TEMP:  57; 6HR MAX TEMP:  63;

$$

TXZ229>234-239>247-160700-
TEXAS COASTAL BEND AND RIO GRANDE PLAINS

CITY           SKY/WX    TMP DP  RH WIND       PRES   REMARKS
VICTORIA       CLOUDY    55  51  86 E5        30.30S
6HR MIN TEMP:  55; 6HR MAX TEMP:  61;

*BEEVILLE      CLOUDY    55  53  92 NE6       30.29S
6HR MIN TEMP:  55; 6HR MAX TEMP:  65;

ROCKPORT       CLOUDY    58  55  90 E3        30.29R
6HR MIN TEMP:  56; 6HR MAX TEMP:  60;

*PORT ARANSAS  NOT AVBL
*PORT LAVACA   CLOUDY    55  52  91 NE6       30.30S
6HR MIN TEMP:  55; 6HR MAX TEMP:  58;

*INGLESIDE     CLOUDY    60  55  84 E5        30.28R
CORPUS CHRISTI CLOUDY    59  55  87 NE5       30.28R
6HR MIN TEMP:  58; 6HR MAX TEMP:  66;

CORPUS NAS     CLOUDY    62  57  83 SE6       30.27R
6HR MIN TEMP:  62; 6HR MAX TEMP:  65;

*ROBSTOWN      NOT AVBL
ALICE          MOCLDY    54  49  83 NE8       30.27R
6HR MIN TEMP:  54; 6HR MAX TEMP:  66;

KINGSVILLE NAS CLOUDY    60  53  77 E5        30.26R
6HR MIN TEMP:  60; 6HR MAX TEMP:  66;

COTULLA        MOCLDY    58  50  75 E6        30.29R
6HR MIN TEMP:  58; 6HR MAX TEMP:  68;

LAREDO         CLEAR     58  52  80 E7        30.26R
6HR MIN TEMP:  58; 6HR MAX TEMP:  70;

$$

TXZ248>255-160700-
DEEP SOUTH TEXAS

CITY           SKY/WX    TMP DP  RH WIND       PRES   REMARKS
BROWNSVILLE    CLOUDY    64  56  75 SE7       30.25S
6HR MIN TEMP:  61; 6HR MAX TEMP:  69;

PORT ISABEL    CLOUDY    63  57  81 E7        30.25R
6HR MIN TEMP:  60; 6HR MAX TEMP:  66;

*SOUTH PADRE   NOT AVBL
HARLINGEN      MOCLDY    60  54  80 E7        30.24S
6HR MIN



USA.gov is the U.S. government's official web portal to all federal, state and local government web resources and services.